KE5OYL Weather Reports


Display with metric or nautical units.
time (UTC)temp
F
wind
direction
speed
MPH
gust
MPH
rain 1hr
in
rain 24hr
in
rain mn
in
humidity
%
barometer
mb
20240523090250 71 161 2.0 3.0 0.00 0.00 0.00 91 1009.3
20240523085748 71 134 1.0 3.0 0.00 0.00 0.00 91 1009.6
20240523085248 71 128 1.0 3.0 0.00 0.00 0.00 91 1009.6
20240523084245 71 167 2.0 2.0 0.00 0.00 0.00 91 1009.6
20240523083744 71 173 3.0 5.0 0.00 0.00 0.00 91 1009.8
20240523083241 71 172 2.0 5.0 0.00 0.00 0.00 90 1009.7
20240523082740 71 176 3.0 3.0 0.00 0.00 0.00 90 1009.5
20240523082239 71 165 2.0 5.0 0.00 0.00 0.00 90 1009.4
20240523081238 71 41 1.0 2.0 0.00 0.00 0.00 89 1009.5
20240523080737 71 82 1.0 1.0 0.00 0.00 0.00 89 1009.4
20240523080237 72 126 0.0 1.0 0.00 0.00 0.00 89 1009.6
20240523075736 71 154 1.0 2.0 0.00 0.00 0.00 89 1009.7
20240523075235 71 143 1.0 1.0 0.00 0.00 0.00 89 1009.8
20240523074733 72 140 2.0 2.0 0.00 0.00 0.00 89 1009.6
20240523074232 72 141 3.0 3.0 0.00 0.00 0.00 88 1009.9
20240523073729 72 157 3.0 5.0 0.00 0.00 0.00 88 1009.9
20240523073228 72 167 2.0 3.0 0.00 0.00 0.00 88 1010.0
20240523072727 72 194 3.0 5.0 0.00 0.00 0.00 87 1010.0
20240523072226 72 201 3.0 5.0 0.00 0.00 0.00 87 1010.3
20240523071725 72 208 3.0 3.0 0.00 0.00 0.00 87 1010.4
20240523070723 73 200 2.0 3.0 0.00 0.00 0.00 86 1010.3
20240523070222 72 210 3.0 5.0 0.00 0.00 0.00 86 1010.2
20240523065722 72 224 1.0 5.0 0.00 0.00 0.00 86 1010.3
20240523065221 73 229 2.0 2.0 0.00 0.00 0.00 86 1010.5
20240523064720 73 223 2.0 3.0 0.00 0.00 0.00 86 1010.5
20240523064219 73 230 1.0 5.0 0.00 0.00 0.00 86 1010.8
20240523063718 73 222 3.0 6.0 0.00 0.00 0.00 85 1010.8
20240523063216 73 185 6.0 8.0 0.00 0.00 0.00 85 1010.8
20240523062715 73 205 4.0 7.0 0.00 0.00 0.00 86 1010.9
20240523062213 73 188 4.0 5.0 0.00 0.00 0.00 87 1010.9
20240523061712 73 190 4.0 6.0 0.00 0.00 0.00 87 1010.8
20240523061210 73 214 4.0 6.0 0.00 0.00 0.00 87 1010.7
20240523060708 72 204 4.0 6.0 0.00 0.00 0.00 89 1010.9
20240523060206 72 169 2.0 3.0 0.00 0.00 0.00 90 1010.9
20240523055704 72 188 3.0 3.0 0.00 0.00 0.00 92 1011.0
20240523055202 72 168 3.0 3.0 0.00 0.00 0.00 93 1011.0
20240523054700 72 62 1.0 5.0 0.00 0.00 0.00 93 1011.1
20240523054159 72 191 3.0 3.0 0.00 0.00 0.00 93 1011.2
20240523053659 72 204 2.0 5.0 0.00 0.00 0.00 93 1011.0
20240523053157 72 131 1.0 2.0 0.00 0.00 0.00 94 1010.9
20240523052656 72 35 1.0 3.0 0.00 0.00 0.00 94 1010.9
20240523052155 72 78 2.0 5.0 0.00 0.00 0.00 94 1011.4
20240523051655 72 190 3.0 5.0 0.00 0.00 0.00 94 1011.3
20240523051153 72 139 3.0 5.0 0.00 0.00 0.00 94 1011.0
20240523050652 72 172 2.0 3.0 0.00 0.00 0.00 94 1011.0
20240523050150 72 70 2.0 3.0 0.00 0.00 0.00 94 1010.7
20240523045648 72 93 3.0 6.0 0.00 0.28 0.28 94 1010.7
20240523045146 72 20 1.0 5.0 0.00 0.28 0.28 94 1011.0
20240523044644 72 41 2.0 3.0 0.00 0.28 0.28 94 1011.3
20240523044142 72 118 3.0 5.0 0.00 0.28 0.28 93 1011.4
20240523043640 72 114 2.0 5.0 0.00 0.28 0.28 93 1011.3
20240523043140 72 25 2.0 2.0 0.00 0.28 0.28 93 1011.3
20240523042639 72 180 2.0 3.0 0.00 0.28 0.28 93 1011.3
20240523042137 72 71 2.0 3.0 0.00 0.28 0.28 93 1011.2
20240523041636 73 68 0.0 2.0 0.00 0.28 0.28 92 1010.9
20240523041134 73 65 1.0 2.0 0.00 0.28 0.28 93 1011.0
20240523040633 73 347 0.0 1.0 0.00 0.28 0.28 92 1010.9
20240523040130 73 184 2.0 3.0 0.00 0.28 0.28 92 1010.8
20240523035628 73 67 1.0 6.0 0.00 0.28 0.28 93 1011.2
20240523035127 73 49 3.0 5.0 0.00 0.28 0.28 93 1010.7
20240523034626 73 8 0.0 1.0 0.00 0.28 0.28 92 1010.7
20240523034125 73 41 1.0 3.0 0.00 0.28 0.28 92 1010.8
20240523033624 73 12 0.0 2.0 0.00 0.28 0.28 92 1010.3
20240523033123 73 21 1.0 5.0 0.00 0.28 0.28 92 1010.1
20240523032622 73 37 3.0 6.0 0.00 0.28 0.28 92 1009.7
20240523032120 73 24 3.0 3.0 0.00 0.28 0.28 92 1009.6
20240523031618 73 346 2.0 8.0 0.00 0.28 0.28 92 1009.7
20240523031117 73 25 4.0 8.0 0.00 0.28 0.28 92 1009.7
20240523030615 73 359 5.0 8.0 0.00 0.28 0.28 92 1009.5
20240523030115 73 23 2.0 7.0 0.00 0.28 0.28 92 1009.5
20240523025614 73 1 4.0 7.0 0.00 0.28 0.28 93 1009.1
20240523025113 73 342 4.0 6.0 0.00 0.28 0.28 93 1008.9
20240523024611 72 11 4.0 10.0 0.00 0.28 0.28 94 1008.4
20240523024110 72 16 5.0 7.0 0.00 0.28 0.28 94 1008.2
20240523023609 72 12 8.0 9.0 0.00 0.28 0.28 94 1008.5
20240523023107 72 3 6.0 11.0 0.00 0.28 0.28 94 1008.5
20240523022605 73 26 6.0 9.0 0.00 0.28 0.28 94 1008.5
20240523022105 73 307 3.0 5.0 0.00 0.28 0.28 94 1008.7
20240523021603 73 57 7.0 10.0 0.00 0.28 0.28 94 1008.6
20240523021102 72 1 6.0 8.0 0.00 0.28 0.28 95 1008.8
20240523020601 72 344 3.0 7.0 0.00 0.28 0.28 94 1008.7
20240523020100 72 354 3.0 9.0 0.00 0.28 0.28 94 1008.8
20240523015559 72 331 5.0 7.0 0.00 0.28 0.28 94 1008.6
20240523015057 72 321 6.0 7.0 0.00 0.28 0.28 94 1008.6
20240523014556 72 327 4.0 10.0 0.00 0.28 0.28 94 1007.9
20240523014055 72 336 5.0 10.0 0.00 0.28 0.28 94 1008.1
20240523013554 72 344 7.0 11.0 0.00 0.28 0.28 94 1007.6
20240523013053 72 21 4.0 9.0 0.00 0.28 0.28 94 1007.0
20240523012552 72 9 9.0 15.0 0.00 0.28 0.28 94 1007.1
20240523012051 72 9 10.0 13.0 0.00 0.28 0.28 94 1007.4
20240523011549 73 11 6.0 9.0 0.00 0.28 0.28 94 1007.6
20240523011049 73 2 2.0 7.0 0.00 0.28 0.28 94 1007.6
20240523010547 73 344 3.0 5.0 0.00 0.28 0.28 94 1007.5
20240523010047 72 331 6.0 10.0 0.00 0.28 0.28 95 1007.9
20240523005546 72 12 3.0 6.0 0.00 0.28 0.28 95 1007.6
20240523005045 72 326 4.0 7.0 0.00 0.28 0.28 95 1007.5
20240523004543 72 322 2.0 6.0 0.00 0.28 0.28 95 1007.4
20240523004042 72 22 5.0 8.0 0.00 0.28 0.28 94 1007.4
20240523003541 72 41 3.0 5.0 0.16 0.28 0.28 94 1007.4
20240523003038 73 33 2.0 7.0 0.42 0.28 0.28 94 1007.1
20240523002537 73 39 4.0 7.0 0.42 0.25 0.25 93 1007.2
20240523002037 73 48 3.0 6.0 0.23 0.20 0.20 92 1007.6
20240523001534 73 322 4.0 6.0 0.18 0.18 0.18 92 1007.7
20240523001033 73 92 4.0 7.0 0.16 0.16 0.16 91 1008.1
20240523000531 73 22 3.0 6.0 0.04 0.15 0.15 92 1008.4
20240523000029 73 268 3.0 8.0 0.00 0.14 0.14 91 1008.0
20240522235527 74 32 5.0 13.0 0.00 0.14 0.14 91 1007.2
20240522235026 74 11 6.0 8.0 0.00 0.14 0.14 90 1008.5
20240522234525 74 350 3.0 6.0 0.00 0.14 0.14 90 1008.8
20240522234024 74 341 3.0 8.0 0.00 0.14 0.14 91 1009.1
20240522233523 74 346 4.0 7.0 0.00 0.14 0.14 92 1008.7
20240522233019 74 359 2.0 8.0 0.00 0.14 0.14 92 1009.0
20240522232518 74 348 3.0 5.0 0.00 0.14 0.14 91 1009.1
20240522232018 74 20 1.0 5.0 0.00 0.14 0.14 92 1008.8
20240522231517 74 355 2.0 2.0 0.00 0.14 0.14 91 1008.8
20240522231015 74 6 2.0 2.0 0.00 0.14 0.14 91 1008.5
20240522230514 74 24 0.0 1.0 0.00 0.14 0.14 91 1008.8
20240522230013 74 358 1.0 1.0 0.00 0.14 0.14 91 1009.4
20240522225513 74 66 1.0 2.0 0.00 0.14 0.14 91 1009.3
20240522225012 74 64 1.0 2.0 0.00 0.14 0.14 91 1009.3
20240522224510 74 36 2.0 6.0 0.00 0.14 0.14 91 1008.8
20240522224010 74 358 4.0 7.0 0.00 0.14 0.14 90 1008.8
20240522223510 74 11 3.0 5.0 0.00 0.14 0.14 91 1009.0
20240522223008 74 4 2.0 5.0 0.00 0.14 0.14 91 1009.0
20240522222507 73 354 5.0 7.0 0.00 0.14 0.14 91 1008.2
20240522222006 73 12 3.0 3.0 0.00 0.14 0.14 92 1008.6
20240522221505 73 5 1.0 3.0 0.00 0.14 0.14 92 1009.2
20240522221004 73 33 3.0 5.0 0.00 0.14 0.14 92 1009.1
20240522220503 72 288 6.0 13.0 0.00 0.14 0.14 92 1006.8
20240522220001 72 0 8.0 14.0 0.00 0.14 0.14 92 1006.4
20240522215500 73 11 6.0 8.0 0.00 0.14 0.14 92 1007.3
20240522214959 73 35 5.0 11.0 0.00 0.14 0.14 92 1007.3
20240522214458 73 14 6.0 9.0 0.00 0.14 0.14 91 1008.1
20240522213958 73 46 3.0 5.0 0.00 0.14 0.14 91 1008.2
20240522213458 74 38 5.0 6.0 0.00 0.14 0.14 91 1008.5
20240522212957 74 42 7.0 11.0 0.00 0.14 0.14 92 1008.0
20240522212456 74 30 6.0 10.0 0.00 0.14 0.14 92 1007.9
20240522211955 74 12 3.0 7.0 0.11 0.14 0.14 92 1009.0
20240522211455 74 24 3.0 5.0 0.61 0.14 0.14 92 1009.4
20240522210953 74 22 8.0 15.0 0.42 0.11 0.11 91 1008.7
20240522210452 75 355 7.0 10.0 0.04 0.03 0.03 89 1009.9
20240522205951 75 347 5.0 8.0 0.16 0.03 0.03 88 1009.7
20240522205450 77 344 7.0 10.0 0.18 0.03 0.03 85 1009.5
20240522204950 79 321 3.0 6.0 0.07 0.01 0.01 81 1009.5
20240522204448 79 258 2.0 5.0 0.00 0.00 0.00 79 1009.8
20240522203947 80 318 2.0 8.0 0.00 0.00 0.00 78 1009.6
20240522203445 80 48 10.0 13.0 0.00 0.00 0.00 76 1009.2
20240522202943 80 97 3.0 3.0 0.00 0.00 0.00 74 1009.3
20240522202443 80 31 5.0 8.0 0.00 0.00 0.00 74 1009.3
20240522201942 80 348 12.0 21.0 0.00 0.00 0.00 75 1009.1
20240522201441 86 325 11.0 21.0 0.00 0.00 0.00 72 1009.5
20240522200939 86 148 1.0 7.0 0.00 0.00 0.00 71 1009.1
20240522200439 86 193 4.0 11.0 0.00 0.00 0.00 71 1008.9
20240522195939 86 160 5.0 9.0 0.00 0.00 0.00 71 1008.7
20240522195438 86 152 4.0 9.0 0.00 0.00 0.00 72 1008.6
20240522194937 86 181 3.0 6.0 0.00 0.00 0.00 72 1008.3
20240522194437 85 168 4.0 6.0 0.00 0.00 0.00 75 1007.9
20240522193936 85 89 4.0 5.0 0.00 0.00 0.00 74 1008.3
20240522193435 84 100 1.0 5.0 0.00 0.00 0.00 76 1008.4
20240522192933 84 62 4.0 5.0 0.00 0.00 0.00 77 1008.4
20240522192432 84 116 3.0 6.0 0.00 0.00 0.00 77 1008.6
20240522191931 84 23 2.0 5.0 0.00 0.00 0.00 77 1008.7
20240522191429 84 76 3.0 6.0 0.00 0.00 0.00 77 1009.0
20240522190928 83 78 3.0 5.0 0.00 0.00 0.00 77 1009.3
20240522190427 83 51 2.0 2.0 0.00 0.00 0.00 77 1009.5
20240522185926 83 93 1.0 2.0 0.00 0.00 0.00 78 1009.1
20240522185426 83 114 2.0 3.0 0.00 0.00 0.00 78 1009.1
20240522184925 83 181 3.0 6.0 0.00 0.00 0.00 77 1009.4
20240522184424 83 14 4.0 7.0 0.00 0.00 0.00 78 1008.6
20240522183922 82 42 2.0 2.0 0.00 0.00 0.00 78 1009.9
20240522183421 82 215 4.0 6.0 0.00 0.00 0.00 78 1009.3
20240522182920 82 191 2.0 2.0 0.00 0.00 0.00 78 1009.9
20240522182420 82 219 4.0 7.0 0.00 0.00 0.00 78 1010.4
20240522181918 82 207 7.0 8.0 0.00 0.00 0.00 78 1010.0
20240522181417 82 204 5.0 9.0 0.00 0.00 0.00 78 1009.9
20240522180916 82 197 5.0 8.0 0.00 0.00 0.00 78 1010.1
20240522180415 82 220 7.0 10.0 0.00 0.00 0.00 78 1009.4
20240522175913 82 197 3.0 8.0 0.00 0.00 0.00 79 1009.4
20240522175412 82 155 8.0 9.0 0.00 0.00 0.00 78 1009.1
20240522174911 82 177 3.0 8.0 0.00 0.00 0.00 79 1009.3
20240522174410 82 132 7.0 11.0 0.00 0.00 0.00 79 1009.4
20240522173908 82 152 6.0 10.0 0.00 0.00 0.00 78 1008.0
20240522173408 83 151 6.0 11.0 0.00 0.00 0.00 78 1009.4
20240522172906 83 133 2.0 8.0 0.00 0.00 0.00 78 1009.0
20240522172406 83 36 4.0 10.0 0.00 0.00 0.00 78 1010.1
20240522171905 83 198 8.0 10.0 0.00 0.00 0.00 77 1010.6
20240522171404 83 209 5.0 11.0 0.00 0.00 0.00 78 1010.7
20240522170903 83 202 5.0 9.0 0.00 0.00 0.00 78 1010.4
20240522170402 83 185 4.0 11.0 0.00 0.00 0.00 79 1009.8
20240522165900 82 172 5.0 9.0 0.00 0.00 0.00 79 1009.5
20240522165358 83 173 7.0 9.0 0.00 0.00 0.00 79 1009.6
20240522164857 82 177 9.0 14.0 0.00 0.00 0.00 79 1009.7
20240522164356 82 187 3.0 8.0 0.00 0.00 0.00 81 1009.4
20240522163855 82 135 6.0 10.0 0.00 0.00 0.00 80 1009.4
20240522163356 82 154 6.0 8.0 0.00 0.00 0.00 80 1009.3
20240522162856 82 165 5.0 7.0 0.00 0.00 0.00 79 1010.0
20240522162355 82 153 5.0 13.0 0.00 0.00 0.00 80 1010.6
20240522161856 82 203 9.0 16.0 0.00 0.00 0.00 80 1010.8
20240522161354 82 165 8.0 14.0 0.00 0.00 0.00 80 1010.5
20240522160852 82 164 7.0 10.0 0.00 0.00 0.00 81 1010.3
20240522160351 82 155 6.0 7.0 0.00 0.00 0.00 81 1010.2
20240522155850 82 163 5.0 11.0 0.00 0.00 0.00 82 1010.4
20240522155349 81 127 5.0 8.0 0.00 0.00 0.00 82 1010.3
20240522154847 81 182 5.0 7.0 0.00 0.00 0.00 82 1010.3
20240522154346 81 141 10.0 13.0 0.00 0.00 0.00 82 1010.3
20240522153845 81 175 5.0 9.0 0.00 0.00 0.00 83 1010.4
20240522153343 81 169 6.0 15.0 0.00 0.00 0.00 83 1010.3
20240522152843 81 183 4.0 13.0 0.00 0.00 0.00 83 1010.3
20240522152341 81 164 7.0 13.0 0.00 0.00 0.00 83 1010.1
20240522151840 81 185 8.0 10.0 0.00 0.00 0.00 82 1010.3
20240522151339 81 141 4.0 8.0 0.00 0.00 0.00 83 1010.3
20240522150840 81 140 9.0 11.0 0.00 0.00 0.00 84 1010.2
20240522150339 81 145 9.0 13.0 0.00 0.00 0.00 84 1010.1
20240522145838 80 153 3.0 10.0 0.00 0.00 0.00 84 1010.4
20240522145336 80 152 10.0 11.0 0.00 0.00 0.00 85 1010.4
20240522144835 80 130 3.0 9.0 0.00 0.00 0.00 86 1010.3
20240522144336 80 147 7.0 9.0 0.00 0.00 0.00 86 1010.2
20240522143834 80 219 5.0 8.0 0.00 0.00 0.00 86 1010.4
20240522143333 80 161 6.0 9.0 0.00 0.00 0.00 86 1010.4
20240522142831 79 167 5.0 7.0 0.00 0.00 0.00 87 1010.4
20240522142330 79 193 3.0 8.0 0.00 0.00 0.00 87 1010.2
20240522141830 79 123 3.0 6.0 0.00 0.00 0.00 87 1010.3
20240522141329 79 110 3.0 11.0 0.00 0.00 0.00 87 1010.5
20240522140828 79 159 5.0 10.0 0.00 0.00 0.00 87 1010.4
20240522140326 79 126 6.0 8.0 0.00 0.00 0.00 87 1010.4
20240522135824 79 186 4.0 7.0 0.00 0.00 0.00 88 1010.4
20240522135324 79 147 5.0 8.0 0.00 0.00 0.00 88 1010.3
20240522134822 79 131 7.0 9.0 0.00 0.00 0.00 88 1010.4
20240522134321 79 193 5.0 6.0 0.00 0.00 0.00 88 1010.3
20240522133819 78 146 5.0 7.0 0.00 0.00 0.00 88 1010.3
20240522133318 78 140 5.0 8.0 0.00 0.00 0.00 88 1010.2
20240522132817 78 146 5.0 8.0 0.00 0.00 0.00 88 1010.3
20240522132316 78 98 5.0 10.0 0.00 0.00 0.00 89 1010.3
20240522131814 78 103 4.0 7.0 0.00 0.00 0.00 89 1010.5
20240522131313 78 143 3.0 6.0 0.00 0.00 0.00 89 1010.5
20240522130812 78 146 7.0 8.0 0.00 0.00 0.00 89 1010.4
20240522130311 78 143 3.0 8.0 0.00 0.00 0.00 89 1010.4
20240522125809 78 149 3.0 9.0 0.00 0.00 0.00 89 1010.4
20240522125308 78 44 3.0 7.0 0.00 0.00 0.00 89 1010.4
20240522124806 78 159 2.0 6.0 0.00 0.00 0.00 89 1010.4
20240522124305 78 161 2.0 9.0 0.00 0.00 0.00 89 1010.3
20240522123804 78 157 5.0 7.0 0.00 0.00 0.00 90 1010.3
20240522123303 78 120 3.0 6.0 0.00 0.00 0.00 89 1010.5
20240522122800 77 95 6.0 7.0 0.00 0.00 0.00 89 1010.2
20240522122258 77 186 2.0 10.0 0.00 0.00 0.00 90 1010.2
20240522121756 77 78 3.0 9.0 0.00 0.00 0.00 90 1010.1
20240522121256 77 164 5.0 6.0 0.00 0.00 0.00 89 1010.1
20240522120754 77 188 3.0 6.0 0.00 0.00 0.00 89 1010.0
20240522120253 77 26 2.0 8.0 0.00 0.00 0.00 89 1010.2
20240522115752 77 122 5.0 8.0 0.00 0.00 0.00 89 1009.9
20240522115250 77 148 5.0 8.0 0.00 0.00 0.00 89 1010.2
20240522114749 77 165 4.0 7.0 0.00 0.00 0.00 90 1010.1
20240522114247 77 159 3.0 5.0 0.00 0.00 0.00 90 1010.1
20240522113746 77 160 5.0 7.0 0.00 0.00 0.00 89 1010.1
20240522113245 77 169 1.0 2.0 0.00 0.00 0.00 89 1009.9
20240522112743 77 60 1.0 3.0 0.00 0.00 0.00 89 1009.9
20240522112241 77 126 5.0 8.0 0.00 0.00 0.00 89 1009.8
20240522111740 77 160 3.0 5.0 0.00 0.00 0.00 89 1009.8
20240522111239 78 163 4.0 5.0 0.00 0.00 0.00 89 1009.8
20240522110738 78 160 3.0 7.0 0.00 0.00 0.00 89 1009.9
20240522110235 78 180 4.0 7.0 0.00 0.00 0.00 88 1009.5
20240522105735 78 172 5.0 8.0 0.00 0.00 0.00 88 1009.7
20240522105234 78 176 5.0 7.0 0.00 0.00 0.00 88 1009.6
20240522104734 78 156 4.0 6.0 0.00 0.00 0.00 88 1009.5
20240522104234 78 146 4.0 7.0 0.00 0.00 0.00 88 1009.4
20240522103732 78 179 3.0 5.0 0.00 0.00 0.00 87 1009.7
20240522103231 78 115 5.0 8.0 0.00 0.00 0.00 87 1009.5
20240522102729 78 144 3.0 5.0 0.00 0.00 0.00 87 1009.3
20240522102228 78 159 3.0 7.0 0.00 0.00 0.00 88 1009.7
20240522101727 78 182 4.0 6.0 0.00 0.00 0.00 87 1009.6
20240522101225 78 145 5.0 7.0 0.00 0.00 0.00 87 1009.5
20240522100724 78 169 4.0 8.0 0.00 0.00 0.00 87 1009.5
20240522100223 78 172 3.0 6.0 0.00 0.00 0.00 88 1009.3
20240522095721 78 175 4.0 8.0 0.00 0.00 0.00 88 1009.6
20240522095221 78 186 7.0 10.0 0.00 0.00 0.00 88 1009.5
20240522094720 78 171 4.0 7.0 0.00 0.00 0.00 88 1009.5
20240522094218 78 183 5.0 9.0 0.00 0.00 0.00 88 1009.5
20240522093718 78 145 6.0 13.0 0.00 0.00 0.00 88 1009.6
20240522093218 78 168 7.0 9.0 0.00 0.00 0.00 88 1009.5
20240522092716 78 179 3.0 11.0 0.00 0.00 0.00 88 1009.3
20240522092214 78 73 2.0 6.0 0.00 0.00 0.00 88 1009.4
20240522091713 78 182 5.0 6.0 0.00 0.00 0.00 88 1009.4
20240522091212 78 127 5.0 7.0 0.00 0.00 0.00 87 1009.4
20240522090711 79 182 3.0 5.0 0.00 0.00 0.00 87 1009.7